Location: Krakow
(50.0830°N, 19.9170°E)
Time: 20:26:59
(UTC+01:00)

Altair - Pass Details

Date: 02 December 2023
Orbit: 1501 x 1682 km, 47.2° (Epoch: 03 March)

Event Time Altitude Azimuth Distance (km) Brightness Sun altitude
Rises 11:26:40 0° 264° (W) 4,755 10.2 18.0°
Reaches altitude 10° 11:29:47 10° 263° (W) 3,747 9.7 18.0°
Maximum altitude 11:39:11 76° 180° (S) 1,564 8.1 17.9°
Drops below altitude 10° 11:48:21 10° 97° (E) 3,656 9.6 17.8°
Sets 11:51:21 0° 95° (E) 4,633 10.0 17.8°
